Regional Weather Roundup
Issued by NWS

Home | Current Version | Previous Version | Graphics & Text | Print | Product List | Glossary On
Versions: 1 2 3 4 5 6 7 8 9 10 11 12 13 14 15 16 17 18 19 20 21 22 23 24 25 26 27 28 29 30 31 32 33 34 35 36 37 38 39 40 41 42 43 44 45 46 47 48 49 50
000
ASUS43 KOAX 301410
RWRNE

WEATHER ROUNDUP FOR NEBRASKA
NATIONAL WEATHER SERVICE OMAHA NE
900 AM CDT SAT APR 30 2016

NOTES: SATELLITE DATA IS BEING USED TO AUGMENT CLOUD COVER ABOVE
       12000 FEET.
       "FAIR" INDICATES FEW OR NO CLOUDS BELOW 12,000 FEET WITH NO
       SIGNIFICANT WEATHER AND/OR OBSTRUCTIONS TO VISIBILITY.

  * THESE STATIONS DO NOT REPORT WEATHER SUCH AS RAIN...SNOW OR FOG.

NEZ001>004-019>022-054>056-301500-
NEBRASKA PANHANDLE

CITY           SKY/WX    TMP DP  RH WIND       PRES   REMARKS
SCOTTSBLUFF    LGT SNOW  35  31  85 N20       29.93S FOG     WCI  24
ALLIANCE       LGT SNOW  33  32  96 N22       29.88F VSB 3/4 WCI  21
CHADRON        LGT RAIN  38  36  92 N14G25    30.00R FOG     WCI  30
KIMBALL        LGT SNOW  32  32  99 N15       29.89S WCI  22
SIDNEY         SNOW      33  31  92 N20       29.87R VSB 1/2 WCI  21
$$

NEZ057>060-069>072-079>082-301500-
SOUTHWEST NEBRASKA

CITY           SKY/WX    TMP DP  RH WIND       PRES   REMARKS
NORTH PLATTE   FLURRIES  34  32  92 NW7       29.81S WCI  28
IMPERIAL       CLOUDY    34  32  92 N15       29.82S WCI  24
LEXINGTON      DRIZZLE   38  37  92 N10       29.76S WCI  32
MCCOOK         CLOUDY    37  35  92 N13       29.79R WCI  29
OGALLALA       LGT RAIN  34  32  92 N14       29.85R WCI  25
$$

NEZ005>010-023>029-035>040-094-301500-
NORTH CENTRAL NEBRASKA

CITY           SKY/WX    TMP DP  RH WIND       PRES   REMARKS
VALENTINE      RAIN      39  36  89 NE21      29.92S WCI  29
AINSWORTH      LGT SNOW  34  33  98 NE18      29.89S WCI  23
BROKEN BOW     LGT RAIN  36  34  92 N15       29.78R WCI  27
O`NEILL        RAIN      40  39  93 NE16G22   29.85F WCI  32
ORD            LGT RAIN  41  38  89 NE17G24   29.77S
THEDFORD       SNOW      34  33  99 N8        29.85S VSB 1/2 WCI  27
$$

NEZ041-046>049-061>064-073>077-083>087-301500-
SOUTH CENTRAL NEBRASKA

CITY           SKY/WX    TMP DP  RH WIND       PRES   REMARKS
GRAND ISLAND   LGT RAIN  42  41  96 NE16      29.74R FOG
AURORA         DRIZZLE   43  43  99 NE16      29.72S
HASTINGS       LGT RAIN  43  42  97 NE14      29.71S FOG
HEBRON         CLOUDY    46  45  96 NE7       29.68S FOG
HOLDREGE       CLOUDY    41  40  97 N13       29.74R FOG
KEARNEY *      CLOUDY    43  39  87 N15       29.73F
YORK           LGT RAIN  43  43 100 NE14      29.71F
$$

NEZ011>018-030>034-042>045-301500-
NORTHEAST NEBRASKA

CITY           SKY/WX    TMP DP  RH WIND       PRES   REMARKS
NORFOLK        RAIN      42  39  89 NE12      29.79S FOG
ALBION         LGT RAIN  41  40  94 NE10      29.76R
BLAIR          MIX PCPN  45  43  95 NE8       29.75R
COLUMBUS *     CLOUDY    43  36  75 NE20      29.74R
FREMONT        DRIZZLE   44  44 100 NE7       29.75F
TEKAMAH        RAIN      45  43  93 NE9       29.77R
WAYNE          RAIN      42  41  95 NE16      29.81S
$$

NEZ050>053-065>068-078-088>093-301500-
SOUTHEAST NEBRASKA

CITY           SKY/WX    TMP DP  RH WIND       PRES   REMARKS
LINCOLN        CLOUDY    46  44  93 NE10      29.71F FOG
OMAHA EPPLEY   LGT RAIN  47  44  90 CALM      29.75R FOG
BEATRICE       CLOUDY    47  46  97 NE8       29.66F
FALLS CITY     CLOUDY    52  50  93 E10       29.65F
NEBRASKA CITY  CLOUDY    47  47 100 E8        29.68F FOG
PLATTSMOUTH    DRIZZLE   46  46  99 NE8       29.71R
$$

NEZ044-045-051>053-067-301500-
OMAHA AREA

CITY           SKY/WX    TMP DP  RH WIND       PRES   REMARKS
OMAHA EPPLEY   LGT RAIN  47  44  90 CALM      29.75R FOG
BLAIR          MIX PCPN  45  43  95 NE8       29.75R
FREMONT        DRIZZLE   44  44 100 NE7       29.75F
MILLARD        LGT RAIN  46  44  93 E7        29.72F
OFFUTT AFB     LGT RAIN  46  46 100 NE7       29.71S
PLATTSMOUTH    DRIZZLE   46  46  99 NE8       29.71R
WAHOO          CLOUDY    45  43  94 NE14      29.72F
$$




USA.gov is the U.S. government's official web portal to all federal, state and local government web resources and services.